Other Public Products
Issued by NWS Grand Forks, ND

Home | Current Version | Previous Version | Text Only | Print | Product List | Glossary Off
Versions: 1 2 3 4 5 6 7 8 9 10 11 12 13 14 15 16 17 18 19 20 21 22 23 24 25 26 27 28 29 30 31 32 33 34 35 36 37 38 39 40 41 42 43 44 45 46 47 48 49 50

000
FPUS83 KFGF 231931
OPUFGF
PRAIRIE TO PINES WEATHER ROUNDUP
NATIONAL WEATHER SERVICE EASTERN NORTH DAKOTA/GRAND FORKS ND
200 PM CDT FRI JUN 23 2017

 **SATELLITE DATA USED TO AUGMENT SKY COVER AT AUTOMATED STATIONS**
 *****  WEATHER ACROSS EASTERN NORTH DAKOTA  *****

CITY           SKY/WX    TMP DP  RH WIND       PRES   REMARKS
GRAND FORKS    PTSUNNY   64  46  52 NW16G26   29.88S
GRAND FORKS AF PTSUNNY   65  45  49 NW17G28   29.89S
GRAND CITY NWS NOT AVBL
BUXTON           N/A     65  48  53 W18G33      N/A
DEVILS LAKE    PTSUNNY   61  40  45 W23G31    29.94S
FARGO          CLOUDY    64  49  57 NW22G30   29.90R
WAHPETON ARPT  CLOUDY    63  45  51 NW14G26   29.93R
$$

 *****  WEATHER ACROSS CENTRAL AND WESTERN NORTH DAKOTA  *****

CITY           SKY/WX    TMP DP  RH WIND       PRES   REMARKS
JAMESTOWN      PTSUNNY   64  39  39 NW21G31   29.96S
BISMARCK       FAIR      65  37  35 NW22G33   30.06F
MINOT          CLOUDY    61  39  44 NW26G33   30.03S
MINOT AFB      CLOUDY    60  38  44 NW25G35   30.02S
GARRISON         N/A     62  38  40 NW25G37   30.04F
WILLISTON      PTSUNNY   64  32  30 NW24G38   30.13F
DICKINSON      PTSUNNY   62  30  29 W25G38    30.11S
HETTINGER      FAIR      63  30  28 NW23G33   30.15S
$$

 *****  OTHER OBSERVATIONS NORTHEAST NORTH DAKOTA  *****

CITY           SKY/WX    TMP DP  RH WIND       PRES   REMARKS
WALHALLA       NOT AVBL
LANGDON        MOCLDY    61  45  55 NW23G32   29.92R
CAVALIER       CLOUDY    61  45  55 NW15G23   29.89R
GRAFTON        CLOUDY    63  46  55 NW20G25   29.90S
CANDO          NOT AVBL
FORT TOTTEN      N/A     63  44  50 NW9       29.95S
ROLLA            N/A     55  39  54 NW24G36   29.97R
RUGBY          NOT AVBL
 ***** THE ABOVE OBSERVATIONS ARE NON NWS ARE NOT QUALITY
        CONTROLLED AND MAY MIS-REPORT RAIN FOR SNOW...
$$

 *****  OTHER OBSERVATIONS SOUTHEAST NORTH DAKOTA *****

CITY           SKY/WX    TMP DP  RH WIND       PRES   REMARKS
COOPERSTOWN    MOCLDY    61  43  51 NW17G30   29.94F
VALLEY CITY    CLOUDY    61  43  51 NW22G35   29.96F
OAKES          NOT AVBL
GWINNER        CLOUDY    64  46  52 NW20G25   29.96R
SHEYENNE NWR     N/A     64  47  53 NW15      29.95S
BUFFALO          N/A     62  41  46 NW22        N/A
WYNDMERE       NOT AVBL
 ***** THE ABOVE OBSERVATIONS ARE NON NWS ARE NOT QUALITY
       CONTROLLED AND MAY MIS-REPORT RAIN FOR SNOW...
$$

  *****  WEATHER ACROSS NORTHERN MINNESOTA  *****

CITY           SKY/WX    TMP DP  RH WIND       PRES   REMARKS
FLAG ISLAND    FAIR      59  54  82 NW17G26   29.76S
WARROAD        PTSUNNY   57  54  88 W15G21    29.81R
ROSEAU           N/A     61  54  77 W16G23    29.82R
HALLOCK        CLOUDY    59  50  72 N13G18    29.87S
THF RVR FALLS  CLOUDY    58  48  69 NW21G28   29.87R
HALSTAD          N/A     64  46  53 NW17        N/A
FOSSTON        CLOUDY    59  48  67 NW16G28   29.87R
BAUDETTE       CLOUDY    63  54  72 N15       29.76R
WASKISH        LGT RAIN  59  55  88 W16G26    29.80R
CROOKSTON      PTSUNNY   61  48  63 NW14G21     N/A
$$
  *****  WEATHER ACROSS CENTRAL AND WEST MINNESOTA  *****

CITY           SKY/WX    TMP DP  RH WIND       PRES   REMARKS
BEMIDJI        PTSUNNY   65  51  60 NW24G31   29.81S
PARK RAPIDS    PTSUNNY   64  50  60 W24G35    29.83R
WADENA         LGT RAIN  57  54  88 W13G20    29.87R
DETROIT LAKES  PTSUNNY   61  50  67 NW20G31   29.90R
MOORHEAD       CLOUDY    63  48  59 NW18G24   29.91R
FERGUS FALLS   CLOUDY    61  50  67 NW18G25   29.89R
ELBOW LAKE     CLOUDY    61  52  71 NW13G21   29.92R
MORRIS MN      PTSUNNY   66  50  55 NW22G29   29.91S
STAPLES        PTSUNNY   64  50  59 W18G25    29.84R
WHEATON        PTSUNNY   64  48  55 W21       29.95R
$$
  *****  WEATHER ELSEWHERE ACROSS MINNESOTA  *****

CITY           SKY/WX    TMP DP  RH WIND       PRES   REMARKS
DULUTH         PTSUNNY   67  49  52 NW14G21   29.71S
INTRNTL FALLS  PTSUNNY   65  51  60 NW9       29.72R
ELY            FAIR      63  54  72 NW9       29.69S
CLOQUET        FAIR      68  46  45 W16G22    29.73S
BRAINERD       LGT RAIN  60  57  89 NW6       29.82R
HIBBING        FAIR      66  49  54 NW12G22   29.72S
ALEXANDRIA     CLOUDY    64  52  64 NW23G31   29.90R
SAINT CLOUD    CLOUDY    67  51  56 NW18G24   29.82R
MINNEAPOLIS    PTSUNNY   72  50  45 NW15G29   29.80S
$$

  *****  WEATHER ACROSS SOUTH DAKOTA  *****

CITY           SKY/WX    TMP DP  RH WIND       PRES   REMARKS
SIOUX FALLS    CLOUDY    66  52  60 NW24G32   29.98F
BROOKINGS      CLOUDY    61  49  64 NW21      29.98F
WATERTOWN      CLOUDY    59  48  67 NW18G26   29.98S
HURON          PTSUNNY   67  46  47 N18G28    30.01F
SISSETON         N/A     67  48  50 NW24G32   29.93F
ABERDEEN       PTSUNNY   65  42  43 NW18G28   30.00F
MITCHELL       CLOUDY    68  45  43 NW21G36   30.03S
PIERRE         FAIR      68  37  32 NW24G32   30.08F
MOBRIDGE       FAIR      69  35  28 NW24G35   30.03F
RAPID CITY     FAIR      67  34  29 N23G37    30.16F
$$

  *****  SOME WEATHER IN NEARBY STATES *****

CITY           SKY/WX    TMP DP  RH WIND       PRES   REMARKS
GLASGOW MT     FAIR      66  30  26 NW21G28   30.19F
GREAT FALLS MT FAIR      62  35  36 E7        30.27F
CHEYENNE WY    FAIR      61  39  44 VRB3      30.27F
SCOTTSBLUFF NE FAIR      71  33  24 NW13G21   30.21S
OMAHA NE       PTSUNNY   72  52  49 NW22      30.00F
DES MOINES IA  PTSUNNY   73  51  46 NW18G30   29.89S
DAVENPORT IA   FAIR      79  57  46 NW17      29.77F
CHICAGO IL     PTSUNNY   81  46  29 NW12      29.71S
EAU CLAIRE WI  PTSUNNY   70  53  54 W18G25    29.75R
LA CROSSE WI   FAIR      78  54  43 NW17      29.76R
$$

  *****  SOME NATIONAL WEATHER *****

CITY           SKY/WX    TMP DP  RH WIND       PRES   REMARKS
LA GUARDIA NY  PTSUNNY   84  72  67 SW12G25   29.68F
RALEIGH NC     FAIR      89  71  55 W18G32    29.92F HX  95
ATLANTA GA     PTSUNNY   87  70  56 SW18G26   29.96F HX  92
NEW ORLEANS LA PTSUNNY   86  78  77 S15       29.92F HX  98
OKLAHOMA CITY  CLOUDY    88  70  55 N16       29.91R HX  93
ALBUQUERQUE NM PTSUNNY   95  23   7 N14       30.08F
SALT LAKE CITY FAIR      81  34  18 NW8       30.16F
LOS ANGELES CA CLOUDY    68  61  78 W12       29.92R
BOISE ID       FAIR      74  32  21 SW3       30.18F
SEATTLE WA     FAIR      74  50  42 N10       30.20F
$$

*** WEATHER ACROSS MANITOBA...SASKATCHEWAN AND ONTARIO ***
                ***ONTARIO***

CITY           SKY/WX    TMP DP  RH WIND       PRES   REMARKS
GERALDTON      LGT RAIN  63  50  63 NW14G21   29.54S
THUNDER BAY    PTSUNNY   66  54  63 NW9G17    29.58R
SIOUX LOOKOUT  PTSUNNY   66  50  55 NW12G21   29.64
TORONTO        PTSUNNY   72  66  83 S8        29.54R
BIG TROUT LK   LGT RAIN  61  48  63 N7        29.65S
PICKLE LAKE    LGT RAIN  63  52  67 N7        29.60R
DRYDEN         PTSUNNY   64  54  68 W6        29.66S
KENORA         LGT RAIN  59  54  82 NW13G21   29.74R
$$
                *** MANITOBA***

CITY           SKY/WX    TMP DP  RH WIND       PRES   REMARKS
BRANDON        CLOUDY    54  39  58 NW25G33   29.95S
DAUPHIN        CLOUDY    57  43  58 NW17G24   29.91S
ISLAND LAKE    MOSUNNY   59  50  72 N10G18    29.77R
PILOT MOUND      N/A     55  41  58 NW21G29     N/A
THE PAS        DRIZZLE   50  45  81 NW14G22   29.93R
THOMPSON       CLOUDY    55  41  58 NE15G22   29.90S
WINNIPEG       CLOUDY    55  50  82 NW20G26   29.86R
LYNN LAKE      CLOUDY    52  37  58 N12G21    30.02R
CHURCHILL      MOSUNNY   48  41  76 N10       29.99R
GILLAM         PTSUNNY   54  41  62 NE16G23   29.91R
$$
                ***SASKATCHEWAN***

CITY           SKY/WX    TMP DP  RH WIND       PRES   REMARKS
ESTEVAN        PTSUNNY   55  39  54 NW22G35   30.09S
KINDERSLEY     PTSUNNY   63  37  39 NW15G23   30.16F
LLOYDMINSTER   PTSUNNY   63  41  45 NW10G22   30.14F
PRINCE ALBERT  LGT RAIN  50  39  66 N13G23    30.10R
REGINA         PTSUNNY   59  34  38 NW23G32   30.09F
YORKTON        PTSUNNY   52  41  66 W29G36    29.99F



USA.gov is the U.S. government's official web portal to all federal, state and local government web resources and services.